Volver al catálogo

METEOR 2-11 DEB

ActivoPO
NORAD 43310·DEBRIS·🇷🇺 Russia

Lanzado Jul 5, 1984 desde Plesetsk Cosmodrome

Loading…

Próximos Pases (próximas 24 horas)

TLE

ActualizadoSource: Space-Track

Época: Sep 12, 2026, 11:02 UTC

1 43310U 84072V   26255.45972452  .00000278  00000-0  19270-3 0  9999
2 43310  82.5467 317.4159 0017015 185.2672 174.8319 13.95673303596003

Sigue METEOR 2-11 DEB en tiempo real con AllMySat

Download on the App Store